N7MLR Weather Reports


Display with metric or nautical units.
time (UTC)temp
F
wind
direction
speed
MPH
gust
MPH
rain 1hr
in
rain 24hr
in
rain mn
in
humidity
%
barometer
mb
20260510143258 78 245 1.0 2.0 0.00 0.00 0.00 77 1012.7
20260510142754 78 211 1.0 1.0 0.00 0.00 0.00 78 1012.8
20260510142251 77 211 2.0 2.0 0.00 0.00 0.00 79 1013.0
20260510141748 77 225 1.0 1.0 0.00 0.00 0.00 79 1012.8
20260510141246 77 226 1.0 2.0 0.00 0.00 0.00 79 1012.8
20260510140743 77 215 1.0 1.0 0.00 0.00 0.00 79 1012.9
20260510140238 76 216 2.0 2.0 0.00 0.00 0.00 79 1012.6
20260510135732 76 216 2.0 2.0 0.00 0.00 0.00 80 1012.9
20260510135228 76 222 0.0 0.0 0.00 0.00 0.00 80 1012.7
20260510134726 75 221 1.0 1.0 0.00 0.00 0.00 82 1012.7
20260510134223 75 227 1.0 2.0 0.00 0.00 0.00 83 1012.7
20260510133718 73 231 1.0 1.0 0.00 0.00 0.00 85 1012.5
20260510133214 73 228 0.0 0.0 0.00 0.00 0.00 86 1012.5
20260510132710 72 202 1.0 1.0 0.00 0.00 0.00 87 1012.4
20260510132208 71 202 1.0 1.0 0.00 0.00 0.00 89 1012.0
20260510131705 70 204 1.0 1.0 0.00 0.00 0.00 91 1012.3
20260510131204 70 212 1.0 1.0 0.00 0.00 0.00 93 1012.3
20260510130659 69 201 1.0 1.0 0.00 0.00 0.00 94 1012.1
20260510130156 68 202 0.0 0.0 0.00 0.00 0.00 96 1011.9
20260510125653 68 202 0.0 0.0 0.00 0.00 0.00 97 1012.1
20260510125149 67 202 0.0 0.0 0.00 0.00 0.00 98 1011.9
20260510124646 66 202 0.0 0.0 0.00 0.00 0.00 99 1012.1
20260510124143 65 202 0.0 0.0 0.00 0.00 0.00 99 1012.0
20260510123638 65 203 0.0 0.0 0.00 0.00 0.00 99 1011.8
20260510123134 65 203 0.0 0.0 0.00 0.00 0.00 99 1011.6
20260510122631 64 203 0.0 0.0 0.00 0.00 0.00 99 1012.0
20260510122127 64 203 0.0 0.0 0.00 0.00 0.00 98 1011.8
20260510121624 64 203 0.0 0.0 0.00 0.00 0.00 98 1011.8
20260510121121 64 202 0.0 0.0 0.00 0.00 0.00 98 1011.8
20260510120619 64 202 0.0 0.0 0.00 0.00 0.00 98 1011.4
20260510120114 64 202 0.0 0.0 0.00 0.00 0.00 98 1011.6
20260510115611 64 202 0.0 0.0 0.00 0.00 0.00 98 1011.4
20260510115108 64 201 0.0 0.0 0.00 0.00 0.00 98 1011.5
20260510114604 64 201 0.0 0.0 0.00 0.00 0.00 98 1011.7
20260510114100 64 201 0.0 0.0 0.00 0.00 0.00 98 1011.5
20260510113555 64 201 0.0 0.0 0.00 0.00 0.00 98 1011.5
20260510113053 64 201 0.0 0.0 0.00 0.00 0.00 98 1011.3
20260510112549 64 202 0.0 0.0 0.00 0.00 0.00 98 1011.5
20260510112046 64 201 0.0 0.0 0.00 0.00 0.00 98 1011.3
20260510111543 65 204 0.0 1.0 0.00 0.00 0.00 98 1011.3
20260510111039 65 198 0.0 0.0 0.00 0.00 0.00 98 1011.3
20260510110535 65 198 0.0 1.0 0.00 0.00 0.00 99 1011.1
20260510110031 65 200 1.0 1.0 0.00 0.00 0.00 99 1011.1
20260510105526 63 201 0.0 0.0 0.00 0.00 0.00 99 1011.5
20260510105021 63 201 0.0 0.0 0.00 0.00 0.00 99 1011.4
20260510104518 64 201 0.0 0.0 0.00 0.00 0.00 99 1011.4
20260510104015 64 198 0.0 0.0 0.00 0.00 0.00 99 1011.3
20260510103512 64 200 0.0 0.0 0.00 0.00 0.00 99 1011.5
20260510103008 64 200 0.0 0.0 0.00 0.00 0.00 98 1011.4
20260510102504 64 200 0.0 0.0 0.00 0.00 0.00 98 1011.4
20260510102001 64 200 0.0 0.0 0.00 0.00 0.00 98 1011.2
20260510101458 63 202 0.0 0.0 0.00 0.00 0.00 98 1011.1
20260510100956 64 202 0.0 0.0 0.00 0.00 0.00 98 1011.1
20260510100452 63 202 0.0 0.0 0.00 0.00 0.00 98 1011.1
20260510095949 63 202 0.0 0.0 0.00 0.00 0.00 98 1011.5
20260510095445 63 202 0.0 0.0 0.00 0.00 0.00 98 1011.2
20260510094944 63 202 0.0 0.0 0.00 0.00 0.00 98 1011.4
20260510094439 63 201 0.0 0.0 0.00 0.00 0.00 98 1011.2
20260510093935 63 201 0.0 0.0 0.00 0.00 0.00 98 1011.4
20260510093430 63 202 0.0 0.0 0.00 0.00 0.00 98 1011.4
20260510092927 64 202 0.0 0.0 0.00 0.00 0.00 98 1011.5
20260510092425 64 202 0.0 0.0 0.00 0.00 0.00 98 1011.7
20260510091918 64 201 0.0 0.0 0.00 0.00 0.00 98 1011.3
20260510091416 64 201 0.0 0.0 0.00 0.00 0.00 98 1011.4
20260510090912 64 201 0.0 0.0 0.00 0.00 0.00 98 1011.6
20260510090409 64 201 0.0 0.0 0.00 0.00 0.00 98 1011.4
20260510085905 64 202 0.0 0.0 0.00 0.00 0.00 98 1011.5
20260510085400 64 201 0.0 0.0 0.00 0.00 0.00 98 1011.6
20260510084855 64 202 0.0 0.0 0.00 0.00 0.00 97 1011.5
20260510084354 64 202 0.0 0.0 0.00 0.00 0.00 97 1011.4
20260510083850 64 202 0.0 0.0 0.00 0.00 0.00 97 1011.3
20260510083346 65 202 0.0 0.0 0.00 0.00 0.00 97 1011.6
20260510082842 65 201 0.0 0.0 0.00 0.00 0.00 97 1011.3
20260510082339 65 201 0.0 0.0 0.00 0.00 0.00 97 1011.4
20260510081838 65 202 0.0 0.0 0.00 0.00 0.00 97 1011.4
20260510081334 66 201 0.0 0.0 0.00 0.00 0.00 97 1011.2
20260510080831 66 201 0.0 0.0 0.00 0.00 0.00 97 1011.2
20260510080325 66 201 0.0 0.0 0.00 0.00 0.00 97 1011.4
20260510075823 66 201 0.0 0.0 0.00 0.00 0.00 97 1011.1
20260510075320 65 201 0.0 0.0 0.00 0.00 0.00 97 1011.1
20260510074816 66 201 0.0 0.0 0.00 0.00 0.00 97 1011.4
20260510074314 66 201 0.0 0.0 0.00 0.00 0.00 97 1011.2
20260510073810 66 201 0.0 0.0 0.00 0.00 0.00 97 1011.4
20260510073306 66 201 0.0 0.0 0.00 0.00 0.00 97 1011.4
20260510072802 66 201 0.0 0.0 0.00 0.00 0.00 97 1011.3
20260510072259 66 201 0.0 0.0 0.00 0.00 0.00 96 1011.5
20260510071755 66 201 0.0 0.0 0.00 0.00 0.00 96 1011.1
20260510071252 66 201 0.0 0.0 0.00 0.00 0.00 96 1011.1
20260510070750 66 201 0.0 0.0 0.00 0.00 0.00 96 1011.1
20260510070246 66 201 0.0 0.0 0.00 0.00 0.00 96 1011.1
20260510065741 66 201 0.0 0.0 0.00 0.00 0.00 96 1011.1
20260510065238 66 201 0.0 0.0 0.00 0.00 0.00 96 1011.3
20260510064734 66 201 0.0 0.0 0.00 0.00 0.00 95 1011.3
20260510064232 66 201 0.0 0.0 0.00 0.00 0.00 95 1011.3
20260510063728 66 201 0.0 0.0 0.00 0.00 0.00 95 1011.2
20260510063225 67 201 0.0 0.0 0.00 0.00 0.00 95 1011.2
20260510062721 67 201 0.0 0.0 0.00 0.00 0.00 95 1011.3
20260510062217 67 201 0.0 0.0 0.00 0.00 0.00 95 1011.4
20260510061713 67 202 0.0 0.0 0.00 0.00 0.00 94 1011.5
20260510061210 67 201 0.0 0.0 0.00 0.00 0.00 94 1011.4
20260510060706 67 201 0.0 0.0 0.00 0.00 0.00 94 1011.2
20260510060203 67 202 0.0 0.0 0.00 0.00 0.00 94 1011.5
20260510055659 67 201 0.0 1.0 0.00 0.00 0.00 94 1011.3
20260510055157 67 202 0.0 0.0 0.00 0.00 0.00 94 1011.6
20260510054653 67 202 0.0 0.0 0.00 0.00 0.00 93 1011.3
20260510054149 67 202 0.0 0.0 0.00 0.00 0.00 93 1011.3
20260510053648 67 201 0.0 0.0 0.00 0.00 0.00 93 1011.7
20260510053145 67 202 0.0 0.0 0.00 0.00 0.00 93 1011.3
20260510052641 67 202 0.0 0.0 0.00 0.00 0.00 93 1011.2
20260510052137 67 202 0.0 0.0 0.00 0.00 0.00 92 1011.4
20260510051633 67 202 0.0 0.0 0.00 0.00 0.00 92 1011.3
20260510051129 67 202 0.0 0.0 0.00 0.00 0.00 92 1011.2
20260510050627 67 202 0.0 0.0 0.00 0.00 0.00 91 1011.1
20260510050124 68 202 0.0 0.0 0.00 0.00 0.00 91 1011.1
20260510045621 68 202 0.0 0.0 0.00 0.01 0.01 90 1011.1
20260510045117 68 202 0.0 0.0 0.00 0.01 0.01 90 1010.8
20260510044614 69 202 0.0 0.0 0.00 0.01 0.01 90 1010.8
20260510044111 69 202 0.0 0.0 0.00 0.01 0.01 90 1010.9
20260510043606 69 202 0.0 0.0 0.00 0.01 0.01 89 1010.8
20260510043103 69 202 0.0 0.0 0.00 0.01 0.01 89 1010.9
20260510042601 69 202 0.0 0.0 0.00 0.01 0.01 89 1010.8
20260510042057 69 202 0.0 0.0 0.00 0.01 0.01 88 1010.8
20260510041554 69 202 0.0 0.0 0.00 0.01 0.01 88 1010.6
20260510041051 70 202 0.0 0.0 0.00 0.01 0.01 87 1010.8
20260510040548 70 202 0.0 0.0 0.00 0.01 0.01 87 1010.9
20260510040044 70 202 0.0 0.0 0.00 0.01 0.01 86 1010.7
20260510035540 70 202 0.0 0.0 0.00 0.01 0.01 86 1010.7
20260510035040 70 202 0.0 0.0 0.00 0.01 0.01 86 1010.8
20260510034539 71 202 0.0 0.0 0.00 0.01 0.01 85 1010.7
20260510034035 71 202 0.0 0.0 0.00 0.01 0.01 85 1010.6
20260510033531 71 202 0.0 0.0 0.00 0.01 0.01 84 1010.7
20260510033029 72 202 0.0 0.0 0.00 0.01 0.01 83 1010.3
20260510032525 72 202 0.0 0.0 0.00 0.01 0.01 81 1010.4
20260510032020 73 202 0.0 0.0 0.00 0.01 0.01 80 1010.2
20260510031516 73 202 1.0 1.0 0.00 0.01 0.01 79 1010.3
20260510031012 74 202 1.0 1.0 0.00 0.01 0.01 79 1010.2
20260510030508 73 202 1.0 1.0 0.00 0.01 0.01 79 1010.3
20260510030005 73 205 0.0 1.0 0.00 0.01 0.01 79 1010.1
20260510025502 73 205 0.0 0.0 0.00 0.01 0.01 79 1010.1
20260510024959 74 205 0.0 0.0 0.00 0.01 0.01 78 1010.1
20260510024450 74 205 0.0 0.0 0.00 0.01 0.01 77 1010.1
20260510023946 75 205 0.0 0.0 0.00 0.01 0.01 75 1009.9
20260510023443 75 205 0.0 0.0 0.00 0.01 0.01 74 1009.8
20260510022940 75 205 0.0 0.0 0.00 0.01 0.01 73 1009.8
20260510022439 76 205 0.0 0.0 0.00 0.01 0.01 72 1009.6
20260510021938 76 205 0.0 0.0 0.00 0.01 0.01 71 1009.9
20260510021436 77 205 0.0 0.0 0.00 0.01 0.01 69 1009.8
20260510020933 77 205 0.0 0.0 0.00 0.01 0.01 68 1009.7
20260510020427 78 205 0.0 0.0 0.00 0.01 0.01 66 1009.9
20260510015923 78 207 0.0 1.0 0.00 0.01 0.01 65 1009.8
20260510015419 79 205 1.0 1.0 0.00 0.01 0.01 63 1009.5
20260510014914 79 208 1.0 1.0 0.00 0.01 0.01 62 1009.5
20260510014412 80 209 1.0 1.0 0.00 0.01 0.01 61 1009.5
20260510013908 80 218 1.0 1.0 0.00 0.01 0.01 59 1009.2
20260510013403 80 212 0.0 1.0 0.00 0.01 0.01 58 1009.4
20260510012858 80 223 0.0 1.0 0.00 0.01 0.01 59 1009.2
20260510012354 79 240 0.0 1.0 0.00 0.01 0.01 60 1009.0
20260510011849 80 240 0.0 1.0 0.00 0.01 0.01 60 1009.2
20260510011344 80 240 0.0 0.0 0.00 0.01 0.01 60 1009.0
20260510010840 81 240 0.0 0.0 0.00 0.01 0.01 58 1008.9
20260510010338 81 240 0.0 0.0 0.00 0.01 0.01 57 1008.9
20260510005834 82 237 0.0 1.0 0.00 0.01 0.01 56 1008.7
20260510005331 82 236 2.0 2.0 0.00 0.01 0.01 54 1008.8
20260510004829 82 245 1.0 1.0 0.00 0.01 0.01 55 1008.7
20260510004326 83 230 0.0 0.0 0.00 0.01 0.01 59 1008.7
20260510003823 84 244 1.0 2.0 0.00 0.01 0.01 60 1008.5
20260510003320 85 235 1.0 1.0 0.00 0.01 0.01 60 1008.5
20260510002819 85 231 1.0 1.0 0.00 0.01 0.01 59 1008.5
20260510002316 86 244 1.0 2.0 0.00 0.01 0.01 58 1008.3
20260510001813 86 240 1.0 2.0 0.00 0.01 0.01 58 1008.3
20260510001311 86 233 1.0 1.0 0.00 0.01 0.01 58 1008.4
20260510000806 86 220 1.0 1.0 0.00 0.01 0.01 59 1008.0
20260510000305 85 239 1.0 2.0 0.00 0.01 0.01 60 1008.0
20260509235802 85 233 1.0 1.0 0.00 0.01 0.01 60 1008.0
20260509235258 85 238 0.0 1.0 0.00 0.01 0.01 59 1008.2
20260509234754 85 236 2.0 3.0 0.00 0.01 0.01 59 1008.0
20260509234250 85 244 1.0 1.0 0.00 0.01 0.01 59 1008.2
20260509233749 85 256 3.0 5.0 0.00 0.01 0.01 59 1008.0
20260509233246 85 238 1.0 1.0 0.00 0.01 0.01 61 1008.0
20260509232742 86 284 1.0 2.0 0.00 0.01 0.01 60 1008.0
20260509232240 86 249 2.0 2.0 0.00 0.01 0.01 60 1007.9
20260509231736 87 277 1.0 2.0 0.00 0.01 0.01 58 1008.2
20260509231233 86 214 1.0 2.0 0.00 0.01 0.01 59 1007.9
20260509230730 85 229 1.0 2.0 0.00 0.01 0.01 60 1008.0
20260509230227 85 228 0.0 1.0 0.00 0.01 0.01 61 1007.9
20260509225722 86 254 2.0 3.0 0.00 0.01 0.01 60 1008.0
20260509225218 85 223 1.0 1.0 0.00 0.01 0.01 60 1007.9
20260509224714 85 225 1.0 1.0 0.00 0.01 0.01 60 1008.2
20260509224211 85 209 2.0 2.0 0.00 0.01 0.01 58 1007.9
20260509223708 86 221 0.0 1.0 0.00 0.01 0.01 58 1008.2
20260509223205 87 224 1.0 2.0 0.00 0.01 0.01 56 1008.2
20260509222702 87 253 3.0 3.0 0.00 0.01 0.01 53 1007.9
20260509222158 88 179 1.0 1.0 0.00 0.01 0.01 50 1007.8
20260509221654 89 178 0.0 0.0 0.00 0.01 0.01 49 1007.8
20260509221149 90 178 0.0 0.0 0.00 0.01 0.01 49 1007.7
20260509220646 91 177 0.0 0.0 0.00 0.01 0.01 47 1008.0
20260509220142 91 177 0.0 0.0 0.00 0.01 0.01 46 1007.8
20260509215638 91 182 1.0 1.0 0.00 0.01 0.01 47 1008.0
20260509215135 91 196 0.0 1.0 0.00 0.01 0.01 49 1008.0
20260509214632 92 176 3.0 3.0 0.00 0.01 0.01 46 1008.2
20260509214129 92 187 1.0 1.0 0.00 0.01 0.01 46 1008.2
20260509213625 91 196 1.0 1.0 0.00 0.01 0.01 49 1008.0
20260509213121 91 197 1.0 1.0 0.00 0.01 0.01 49 1008.2
20260509212618 92 189 1.0 2.0 0.00 0.01 0.01 48 1008.2
20260509212110 93 188 2.0 2.0 0.00 0.01 0.01 45 1008.3
20260509211606 93 180 0.0 1.0 0.00 0.01 0.01 46 1008.2
20260509211103 93 166 1.0 2.0 0.00 0.01 0.01 47 1008.3
20260509210559 94 202 1.0 1.0 0.00 0.01 0.01 47 1008.5
20260509210056 93 167 2.0 2.0 0.00 0.01 0.01 47 1008.5
20260509205550 91 200 1.0 1.0 0.00 0.01 0.01 49 1008.6
20260509205045 91 185 1.0 2.0 0.00 0.01 0.01 50 1008.6
20260509204542 91 178 1.0 2.0 0.00 0.01 0.01 52 1008.6
20260509204038 91 147 1.0 2.0 0.00 0.01 0.01 52 1008.5
20260509203534 92 182 2.0 2.0 0.00 0.01 0.01 53 1008.7
20260509203033 91 191 0.0 0.0 0.00 0.01 0.01 52 1008.8
20260509202527 89 194 0.0 0.0 0.00 0.01 0.01 54 1008.9
20260509202023 89 198 1.0 1.0 0.00 0.01 0.01 53 1008.8
20260509201518 91 198 0.0 1.0 0.00 0.01 0.01 53 1008.9
20260509201015 91 208 1.0 1.0 0.00 0.01 0.01 54 1009.1
20260509200510 91 184 0.0 1.0 0.00 0.01 0.01 51 1009.1
20260509200007 92 178 0.0 1.0 0.00 0.01 0.01 53 1009.2
20260509195502 90 191 1.0 1.0 0.00 0.01 0.01 54 1009.4
20260509195001 90 191 1.0 2.0 0.00 0.01 0.01 55 1009.2
20260509194458 91 160 2.0 2.0 0.00 0.01 0.01 54 1009.3
20260509193955 91 176 1.0 2.0 0.00 0.01 0.01 52 1009.3
20260509193454 91 165 1.0 1.0 0.00 0.01 0.01 52 1009.6
20260509192951 90 200 0.0 1.0 0.00 0.01 0.01 55 1009.2
20260509192448 89 218 1.0 1.0 0.00 0.01 0.01 58 1009.7
20260509191943 87 219 1.0 1.0 0.00 0.01 0.01 62 1009.9
20260509191438 86 214 1.0 1.0 0.00 0.01 0.01 62 1010.1
20260509190934 87 194 0.0 0.0 0.00 0.01 0.01 60 1010.1
20260509190432 89 194 0.0 1.0 0.00 0.01 0.01 57 1010.4
20260509185930 90 175 1.0 1.0 0.00 0.01 0.01 56 1010.4
20260509185426 89 205 1.0 1.0 0.00 0.01 0.01 59 1010.3
20260509184923 90 191 1.0 1.0 0.00 0.01 0.01 58 1010.3
20260509184420 91 116 2.0 3.0 0.00 0.01 0.01 56 1010.4
20260509183917 88 183 1.0 1.0 0.00 0.01 0.01 61 1010.2
20260509183411 90 146 3.0 3.0 0.00 0.01 0.01 58 1010.4
20260509182908 90 161 2.0 2.0 0.00 0.01 0.01 58 1010.4
20260509182405 89 175 1.0 2.0 0.00 0.01 0.01 58 1010.6
20260509181902 89 179 2.0 2.0 0.00 0.01 0.01 60 1010.5
20260509181400 88 181 1.0 2.0 0.00 0.01 0.01 62 1010.7
20260509180857 86 191 0.0 1.0 0.00 0.01 0.01 64 1010.7
20260509180352 87 196 1.0 1.0 0.00 0.01 0.01 64 1010.9
20260509175850 87 197 1.0 1.0 0.00 0.01 0.01 64 1010.7
20260509175345 85 185 1.0 1.0 0.00 0.01 0.01 66 1010.9
20260509174841 86 184 2.0 2.0 0.00 0.01 0.01 66 1010.9
20260509174338 86 217 1.0 1.0 0.00 0.01 0.01 67 1010.8
20260509173834 86 132 2.0 2.0 0.00 0.01 0.01 66 1010.7
20260509173329 86 226 1.0 2.0 0.00 0.01 0.01 65 1010.9
20260509172825 85 161 2.0 3.0 0.00 0.01 0.01 69 1011.2
20260509172322 86 172 3.0 3.0 0.00 0.01 0.01 67 1011.3
20260509171819 85 220 1.0 1.0 0.00 0.01 0.01 68 1011.3
20260509171314 86 189 1.0 1.0 0.00 0.01 0.01 69 1011.2
20260509170811 86 165 2.0 2.0 0.00 0.01 0.01 68 1011.4
20260509170307 84 176 1.0 2.0 0.00 0.01 0.01 72 1011.2
20260509165806 83 180 1.0 2.0 0.00 0.01 0.01 74 1011.2
20260509165301 84 185 1.0 1.0 0.00 0.01 0.01 74 1011.4
20260509164757 83 189 1.0 1.0 0.00 0.01 0.01 75 1011.5
20260509164253 82 176 1.0 2.0 0.00 0.01 0.01 76 1011.4
20260509163750 81 195 1.0 1.0 0.00 0.01 0.01 78 1011.6
20260509163247 80 191 1.0 1.0 0.00 0.01 0.01 78 1011.4
20260509162746 81 193 0.0 0.0 0.00 0.01 0.01 78 1011.5
20260509162239 81 224 0.0 1.0 0.00 0.01 0.01 78 1011.2
20260509161736 82 229 1.0 2.0 0.00 0.01 0.01 78 1011.7
20260509161232 82 192 1.0 1.0 0.00 0.01 0.01 78 1011.7
20260509160727 79 181 0.0 0.0 0.00 0.01 0.01 83 1011.7
20260509160224 78 184 0.0 0.0 0.00 0.01 0.01 85 1011.8
20260509155718 78 185 1.0 1.0 0.00 0.01 0.01 84 1012.1
20260509155216 79 198 1.0 2.0 0.00 0.01 0.01 82 1011.7
20260509154712 77 215 1.0 1.0 0.00 0.01 0.01 86 1011.8
20260509154209 76 223 0.0 0.0 0.00 0.01 0.01 90 1012.1
20260509153706 76 223 0.0 1.0 0.00 0.01 0.01 90 1012.0
20260509153202 75 232 1.0 1.0 0.00 0.01 0.01 90 1011.5
20260509152658 75 231 0.0 0.0 0.00 0.01 0.01 91 1011.6
20260509152155 75 220 1.0 1.0 0.00 0.01 0.01 91 1011.7
20260509151652 75 194 0.0 0.0 0.00 0.01 0.01 91 1011.5
20260509151149 75 222 2.0 2.0 0.00 0.01 0.01 91 1011.4
20260509150647 75 182 1.0 2.0 0.00 0.01 0.01 93 1011.7
20260509150145 74 231 1.0 2.0 0.00 0.01 0.01 94 1011.3
20260509145641 74 265 2.0 2.0 0.00 0.01 0.01 94 1011.3
20260509145136 74 217 2.0 2.0 0.00 0.01 0.01 96 1011.4
20260509144633 73 208 2.0 3.0 0.00 0.01 0.01 97 1011.5
20260509144130 73 218 1.0 1.0 0.00 0.01 0.01 98 1011.6
20260509143627 72 190 1.0 1.0 0.00 0.01 0.01 99 1011.8